Regional Weather Roundup
Issued by NWS Wakefield, VA

Home | Current Version | Previous Version | Text Only | Print | Product List | Glossary Off
Versions: 1 2 3 4 5 6 7 8 9 10 11 12 13 14 15 16 17 18 19 20 21 22 23 24 25 26 27 28 29 30 31 32 33 34 35 36 37 38 39 40 41 42 43 44 45 46 47

000
ASUS41 KAKQ 211410
RWRAKQ

REGIONAL WEATHER ROUNDUP
NATIONAL WEATHER SERVICE WAKEFIELD VA
1000 AM EDT TUE OCT 21 2014

Note: "fair" indicates few or no clouds below 12,000 feet with no
significant weather and/or obstructions to visibility. * = Denotes
station may not report precipitation (e.g., rain,snow,etc.),
thunder or fog.

VAZ042-051-052>054-056-211500-
NORTHERN VIRGINIA

CITY           SKY/WX    TMP DP  RH WIND       PRES   REMARKS
WASH NATIONAL  MOSUNNY   62  49  62 CALM      29.89S
DULLES         MOSUNNY   56  49  77 CALM      29.89R
FORT BELVOIR   SUNNY     58  51  77 VRB1      29.90S
QUANTICO       MOSUNNY   59  49  69 NW3       29.90S
FREDERICKSBRG* MOSUNNY   62  51  68 CALM      29.87F
STAFFORD*      PTSUNNY   59  51  74 CALM      29.92F
WARRENTON      CLOUDY    58  55  88 CALM      29.88S
CULPEPER*      CLOUDY    57  52  82 CALM      29.89S
MANASSAS*      NOT AVBL
LEESBURG*      CLOUDY    59  54  82 CALM      29.89F
WINCHESTER     SUNNY     59  45  58 SW5       29.88S
FRONT ROYAL*   MOSUNNY   54  50  87 S5        29.88S
LURAY*         MOSUNNY   52  52 100 CALM      29.89S
$$

VAZ048-049-060>072-079>083-211500-
CENTRAL AND SOUTH CENTRAL VIRGINIA...AND NORTH CENTRAL NORTH CAROLINA

CITY           SKY/WX    TMP DP  RH WIND       PRES   REMARKS
RICHMOND       PTSUNNY   63  50  62 W3        29.90S
CHESTERFIELD*  MOSUNNY  N/A N/A N/A W6        29.90S
PETERSBURG*    MOSUNNY   59  50  72 SW5       29.91S
HANOVER        SUNNY     60  50  69 W5        29.91S
TAPPAHANNOCK*  SUNNY     61  48  62 SW5       29.90S
CHARLOTTSVILLE MOSUNNY   61  48  62 CALM      29.88S
ORANGE*        MOSUNNY   59  50  72 S3        29.90S
LOUISA*        MOSUNNY   61  52  72 CALM      29.88R
FARMVILLE*     FAIR      61  50  67 SW3       29.88F
CREWE*         SUNNY     62  50  64 W3        29.90F
FORT PICKETT*  SUNNY     60  50  71 W5        29.90F
LUNENBURG*     SUNNY     59  52  77 CALM      29.91S
SOUTH HILL*    SUNNY     64  54  68 SW3       29.96F
LAWRENCEVILLE* SUNNY     60  53  76 CALM      29.91F
ROANOKE RAPIDS MOSUNNY   61  54  77 SW7       29.93S
RALEIGH        MOSUNNY   61  52  72 W3        29.94S
$$

VAZ088>098-211500-
SOUTHEAST VIRGINIA

CITY           SKY/WX    TMP DP  RH WIND       PRES   REMARKS
NORFOLK        MOSUNNY   65  53  65 SW9       29.90F
VIRGINIA BEACH MOSUNNY   68  58  70 SW9       29.89F
NORFOLK NAVAL  MOSUNNY   67  54  63 SW8       29.91F
WEST POINT*    PTSUNNY   63  53  68 S5        29.91F
NEWPORT NEWS   SUNNY     67  54  63 W8        29.90F
LANGLEY AFB    SUNNY     64  55  72 W8        29.90F
FORT EUSTIS    MOSUNNY   63  56  77 W5        29.89F
WILLIAMSBURG*  MOSUNNY   64  54  68 W5        29.91F
HR EXEC AP*    MOSUNNY   63  55  77 W6        29.93S
FRANKLIN*      MOSUNNY   63  54  72 SW5       29.92S
WAKEFIELD      MOSUNNY   63  53  70 SW6       29.91S
$$

VAZ020-022-025-037-045-211500-
WEST CENTRAL AND SOUTHWEST VIRGINIA

CITY           SKY/WX    TMP DP  RH WIND       PRES   REMARKS
STAUNTON*      MOSUNNY   59  48  67 SW8       29.92F
HOT SPRINGS VA FOG       46  45  99 W7        29.91S VSB 3/4
LYNCHBURG      SUNNY     59  49  69 VRB3      29.92S
DANVILLE       MOSUNNY   60  51  72 W5        29.93S
SOUTH BOSTON*  NOT AVBL
MARTINSVILLE   SUNNY     59  51  74 CALM      29.97R
ROANOKE        MOSUNNY   58  48  69 VRB5      29.95S
BLACKSBURG     MOSUNNY   55  54  94 W5        29.97S
DUBLIN*        PTSUNNY   55  52  87 SW6       29.96S
MARION*        CLOUDY    52  49  89 SW10      29.98S
HILLSVILLE*    PTSUNNY   53  47  80 W6        29.97S
RICHLANDS*     CLOUDY    52  50  92 W9G16     29.98S FOG
WISE*          CLOUDY    50  50 100 W8        30.00S
ABINGDON*      CLOUDY    54  53  95 W8        29.99S FOG
$$

MDZ021>025-VAZ099-100-211500-
SOUTHERN MARYLAND AND THE DELMARVA PENINSULA

CITY           SKY/WX    TMP DP  RH WIND       PRES   REMARKS
PATUXENT RIVER PTSUNNY   61  51  70 W7        29.89R
BAY BRIDGE APT   N/A     59  48  67 W3        29.89S
LEONARDTOWN    PTSUNNY   59  50  72 CALM      29.91R
DOVER          PTSUNNY   61  55  79 SW8       29.86S
GEORGETOWN     PTSUNNY   61  56  83 SW6       29.89S
EASTON         PTSUNNY   63  55  77 CALM      29.92S
CAMBRIDGE      PTSUNNY   63  52  67 W5        29.89R
SALISBURY      PTSUNNY   65  58  78 SW8       29.88F
OCEAN CITY     CLOUDY    64  57  78 SW5       29.88F
WALLOPS ISLAND PTSUNNY   69  56  62 W10       29.89F
ACCOMACK*      MOSUNNY   66  55  68 W8        29.89S
$$

NCZ012>017-030>032-211500-
EASTERN NORTH CAROLINA

CITY           SKY/WX    TMP DP  RH WIND       PRES   REMARKS
ELIZABETH CITY SUNNY     69  57  65 SW7       29.91F
AHOSKIE*       SUNNY     62  55  78 CALM      29.93S
EDENTON*       SUNNY     66  58  76 W7        29.92F
CURRITUCK*     SUNNY     67  57  70 W6        29.92F
KILL DEVIL HLS SUNNY     67  62  83 W5        29.91S
MANTEO         MOSUNNY   66  61  81 SW5       29.92S
CAPE HATTERAS  SUNNY     70  64  81 W6        29.92F
TARBORO*       MOSUNNY   64  56  75 SW6       29.94F
GOLDSBORO      SUNNY     64  62  96 CALM      29.92F
WASHINGTON     SUNNY     65  57  77 W5        29.94S
GREENVILLE     SUNNY     64  55  72 W3        29.96S
NEW BERN       SUNNY     69  59  70 VRB3      29.95S
WILMINGTON     SUNNY     69  59  70 W6        29.95S
$$

VAZ048-211500-
ELSEWHERE

CITY           SKY/WX    TMP DP  RH WIND       PRES   REMARKS
HARRISBURG PA  CLOUDY    53  51  93 E3        29.87S FOG
BALTIMORE      MOSUNNY   59  50  72 CALM      29.88R
ANNAPOLIS      MOSUNNY   59  49  69 CALM      29.89R
ANDREWS AFB    SUNNY     60  50  68 W3        29.88S
WILMINGTON DE  MOSUNNY   59  50  72 CALM      29.89S
PHILADELPHIA   MOSUNNY   58  50  75 CALM      29.89R
WILDWOOD NJ*   PTSUNNY   63  54  72 S7        29.89F
ATLANTIC CITY  MOSUNNY   64  56  75 S5        29.88F
HENDERSON NC   SUNNY     61  51  70 SW3       29.93S
GREENSBORO     MOSUNNY   63  50  62 NW8       29.94S
ROCKY MOUNT    MOSUNNY   64  54  69 SW5       29.93F
FAYETTEVILLE   SUNNY     64  53  67 W7        29.94S
CHARLOTTE      SUNNY     61  50  67 CALM      29.97S
$$

VAZ100-211500-
MARINE

STATION/POSITION TIME  TEMP    WIND        PRES    WAVE   SWELL
                       AIR SEA DIR/SP/G            HT/PER HT/PER
                 (UTC) (F)     (DEG/KT/KT) (MB)    (FT/S) (FT/S)
44066 TX TWR #4  1400   66 66  170/  8/ 10 1012.8S   4/ 6   3/ 6
CAPE MAY NJ      1400   62 66  200/  6/  8 1011.4F
LEWES DE         1400   61 63  230/  5/  8 1011.5F
15NM E FENWICK I 1400   66 66  220/ 12/ 12 1011.8F   3/ 6   2/ 6
OCEAN-CITY-INLET 1400   64 65  220/  6/  7 1011.3F
WACHAPREAGUE VA  1400   65 62  210/  7/ 10 1011.8F
THOMAS POINT MD  1400   57 65  290/  2/  3 1013.1S
GOOSES REEF MD   1400   60     270/  6/  8 1012.5S
COVE POINT MD    1400   60     260/ 11/ 13 1012.0R
SOLOMONS ISLAND  1400      66                N/A
BISHOPS HEAD MD  1400   62 58  230/  8/  9 1011.4F
PINEY POINT MD   1400          270/  4/  5   N/A
POTOMAC MD       1400   61     240/  6/  8 1011.5S
CAMBRIDGE MD     1400   60 63  250/  4/  5 1011.9R
LEWISETTA VA     1400   60 62  250/  4/  5 1011.9R
RAPPAHANNOCK LGT 1400          240/ 13/ 15 1012.5F
STINGRAY PT      1400   63     240/ 10/ 12 1012.9F
YORK RVR RNG VA  1400   63     270/  8/  9 1011.8F
YORKTOWN VA      1400   63 67  270/  9/ 12 1012.1R
JAMESTOWN VA     1400   61     260/  6/  8   N/A
DOMINION TERM VA 1400   62     240/  8/  9 1012.6F
KIPTOPEKE VA     1400      69  250/  9/ 12   N/A
CHES BAY BRIDGE  1400   63 68  210/ 10/ 12 1011.8F
CHESAPEAKE LGHT  1300   64     240/ 13/ 14 1013.3R
WILLOUBY STN VA  1400   62     240/ 11/ 12 1011.0F
S CRANEY ISL VA  1400          230/  5/  8 1012.4S
CAPE HENRY BUOY  1300      68                N/A     2/10   2/11
1ST LANDING BUOY 1400   64     230/ 10/ 12 1012.1F
CAPE CHARLES BUO 1400      68                N/A     2/10   2/10
64NM E OF VA BCH 1400   68 69  220/ 14/ 16 1012.0F   4/ 5   2/10
DUCK PIER NC     1400   66 69  240/  7/  9 1012.1F
44100 DUCK FRF   1400      71                N/A     2/13   2/13
44056 DUCK FRF   1400                        N/A     2/11   2/11
OREGON INLET NC  1400   66 66  240/  8/  9 1013.0S
HATTERAS NC      1400   68 71  280/ 11/ 12 1013.6F
DIAMOND SHLS NC  1400   70     290/ 12/ 16 1013.5R   3/ 5   2/ 9
CAPE LOOKOUT NC  1300   69     280/  9/ 10 1013.8S
$$



USA.gov is the U.S. government's official web portal to all federal, state and local government web resources and services.